TimeCDT,TemperatureF,Dew PointF,Humidity,Sea Level PressureIn,VisibilityMPH,Wind Direction,Wind SpeedMPH,Gust SpeedMPH,PrecipitationIn,Events,Conditions,WindDirDegrees,DateUTC
12:53 AM,72.0,69.1,91,29.99,10.0,Calm,Calm,-,N/A,,Clear,0,2013-07-21 05:53:00
1:53 AM,71.1,69.1,93,29.99,10.0,Calm,Calm,-,N/A,,Clear,0,2013-07-21 06:53:00
2:53 AM,72.0,70.0,93,29.98,7.0,Calm,Calm,-,N/A,,Clear,0,2013-07-21 07:53:00
3:53 AM,73.0,71.1,93,29.99,7.0,Calm,Calm,-,N/A,,Clear,0,2013-07-21 08:53:00
4:53 AM,72.0,71.1,97,29.99,5.0,Calm,Calm,-,N/A,,Clear,0,2013-07-21 09:53:00
5:53 AM,71.1,70.0,96,30.01,5.0,Calm,Calm,-,N/A,,Clear,0,2013-07-21 10:53:00
6:05 AM,71.6,69.8,94,30.02,5.0,Calm,Calm,-,N/A,,Scattered Clouds,0,2013-07-21 11:05:00
6:14 AM,71.6,69.8,94,30.02,4.0,Calm,Calm,-,N/A,,Mostly Cloudy,0,2013-07-21 11:14:00
6:32 AM,71.6,71.6,100,30.02,1.8,Calm,Calm,-,0.01,,Overcast,0,2013-07-21 11:32:00
6:39 AM,71.6,71.6,100,30.03,0.2,Calm,Calm,-,0.01,Fog,Fog,0,2013-07-21 11:39:00
6:53 AM,71.1,71.1,100,30.01,0.2,Calm,Calm,-,0.01,Fog,Fog,0,2013-07-21 11:53:00
7:44 AM,73.4,73.4,100,30.03,0.5,Calm,Calm,-,N/A,Fog,Fog,0,2013-07-21 12:44:00
7:53 AM,73.0,73.0,100,30.03,1.0,Calm,Calm,-,N/A,,Overcast,0,2013-07-21 12:53:00
8:01 AM,73.4,73.4,100,30.04,3.0,Calm,Calm,-,N/A,,Overcast,0,2013-07-21 13:01:00
8:24 AM,75.2,73.4,94,30.04,10.0,South,4.6,-,N/A,,Scattered Clouds,190,2013-07-21 13:24:00
8:53 AM,79.0,73.9,84,30.02,10.0,SW,5.8,-,N/A,,Clear,230,2013-07-21 13:53:00
9:53 AM,82.9,73.0,72,30.02,10.0,SW,6.9,-,N/A,,Partly Cloudy,230,2013-07-21 14:53:00
10:53 AM,82.9,72.0,69,30.03,10.0,West,9.2,-,N/A,,Mostly Cloudy,260,2013-07-21 15:53:00
11:41 AM,84.2,73.4,70,30.05,10.0,SSW,8.1,-,N/A,Thunderstorm,Mostly Cloudy,210,2013-07-21 16:41:00
11:53 AM,84.9,72.0,65,30.03,10.0,SSW,6.9,-,N/A,Thunderstorm,Mostly Cloudy,210,2013-07-21 16:53:00
12:06 PM,78.8,71.6,78,30.06,10.0,South,16.1,23.0,N/A,Thunderstorm,Thunderstorm,180,2013-07-21 17:06:00
12:40 PM,75.2,71.6,89,30.06,10.0,West,6.9,-,0.00,Rain-Thunderstorm,Light Rain,280,2013-07-21 17:40:00
12:53 PM,75.9,72.0,87,30.06,10.0,SSW,10.4,-,0.00,Rain-Thunderstorm,Light Rain,200,2013-07-21 17:53:00
1:00 PM,75.2,71.6,89,30.06,10.0,SSW,12.7,18.4,0.00,Thunderstorm,Overcast,200,2013-07-21 18:00:00
1:14 PM,75.2,73.4,94,30.06,2.5,SSW,6.9,16.1,0.04,Rain-Thunderstorm,Heavy Thunderstorms and Rain,210,2013-07-21 18:14:00
1:16 PM,75.2,73.4,94,30.06,2.0,SSW,5.8,16.1,0.05,Rain,Heavy Rain,210,2013-07-21 18:16:00
1:19 PM,75.2,73.4,94,30.06,2.0,SSW,8.1,16.1,0.05,Rain,Heavy Rain,200,2013-07-21 18:19:00
1:25 PM,75.2,73.4,94,30.05,4.0,SW,6.9,-,0.06,Rain,Light Rain,230,2013-07-21 18:25:00
1:53 PM,75.9,73.0,91,30.02,10.0,SSW,8.1,17.3,0.07,,Scattered Clouds,210,2013-07-21 18:53:00
2:41 PM,78.8,73.4,83,30.03,10.0,WSW,9.2,17.3,N/A,,Mostly Cloudy,240,2013-07-21 19:41:00
2:53 PM,81.0,73.9,79,30.01,10.0,WSW,10.4,-,N/A,,Mostly Cloudy,250,2013-07-21 19:53:00
3:00 PM,80.6,71.6,74,30.03,10.0,SW,9.2,16.1,N/A,,Mostly Cloudy,220,2013-07-21 20:00:00
3:53 PM,79.0,72.0,79,30.00,10.0,WSW,5.8,-,N/A,,Mostly Cloudy,250,2013-07-21 20:53:00
4:53 PM,80.1,73.0,79,30.00,10.0,SSW,5.8,-,N/A,,Mostly Cloudy,210,2013-07-21 21:53:00
5:10 PM,82.4,73.4,74,30.00,10.0,Variable,3.5,-,N/A,,Scattered Clouds,0,2013-07-21 22:10:00
5:53 PM,82.9,73.9,74,29.97,10.0,SW,5.8,-,N/A,,Scattered Clouds,230,2013-07-21 22:53:00
6:00 PM,82.4,73.4,74,29.99,10.0,South,5.8,-,N/A,,Mostly Cloudy,180,2013-07-21 23:00:00
6:45 PM,78.8,73.4,83,30.00,10.0,South,4.6,-,N/A,,Overcast,190,2013-07-21 23:45:00
6:53 PM,79.0,73.9,84,29.99,10.0,South,3.5,-,N/A,,Overcast,180,2013-07-21 23:53:00
7:53 PM,79.0,73.9,84,29.99,10.0,SSW,4.6,-,N/A,,Clear,200,2013-07-22 00:53:00
8:53 PM,77.0,73.0,88,29.99,10.0,South,3.5,-,N/A,,Mostly Cloudy,180,2013-07-22 01:53:00
9:53 PM,75.0,72.0,90,30.00,10.0,South,3.5,-,N/A,,Clear,180,2013-07-22 02:53:00
10:53 PM,73.9,72.0,93,30.02,10.0,South,4.6,-,N/A,,Clear,180,2013-07-22 03:53:00
11:53 PM,73.9,71.1,91,30.02,10.0,South,6.9,-,N/A,,Clear,190,2013-07-22 04:53:00